Rochester, NH

5:27 PM EST on November 19, 2017 (GMT -0500)
Skyhaven

Weather History for KDAW - December, 2012

Change the Weather History Date:

Saturday, December 15, 2012

  Actual Average (KPSM) Record (KPSM)
Temperature  
Mean Temperature 30 °F -  
Max Temperature 39 °F 38 °F 63 °F (1975)
Min Temperature 21 °F 23 °F -1 °F (1980)
Degree Days  
Heating Degree Days 35    
Moisture  
Dew Point 14 °F    
Average Humidity 51    
Maximum Humidity 72    
Minimum Humidity 35    
Precipitation  
Precipitation 0.00 in - - ()
Sea Level Pressure  
Sea Level Pressure 30.28 in    
Wind  
Wind Speed 3 mph (NNW)    
Max Wind Speed 8 mph    
Max Gust Speed -    
Visibility 10 miles    
Events      
Averages and records for this station are not official NWS values.
T = Trace of Precipitation, MM = Missing Value Source: NWS Daily Summary

Daily Weather History Graph

Daily Weather History Graph

Search for Another Location

Airport or City:

Trip Planner

Search our weather history database for the weather conditions in past years. The results will help you decide how hot, cold, wet, or windy it might be!

Date:

Astronomy

Dec. 15, 2012 Rise Set
Actual Time 7:09 AM EST 4:08 PM EST
Civil Twilight 6:36 AM EST 4:41 PM EST
Nautical Twilight 6:00 AM EST 5:17 PM EST
Astronomical Twilight 5:26 AM EST 5:52 PM EST
Moon 8:56 AM EST (12/15) 7:12 PM EST (12/15)
Length of Visible Light 10h 04m
Length of Day
8h 59m
Waxing Crescent, 8% of the Moon is Illuminated
Dec 15
Waxing Crescent
Dec 20
First Quarter
Dec 28
Full
Jan 4
Last Quarter
Jan 11
New

Hourly Weather History & Observations

Time (EST) Temp. Windchill Dew Point Humidity Pressure Visibility Wind Dir Wind Speed Gust Speed Precip Events Conditions
12:51 AM 37.9 °F 34.4 °F 25.0 °F 60% 30.14 in 10.0 mi WNW 4.6 mph - N/A   Overcast
2:51 AM 36.0 °F - 23.0 °F 59% 30.17 in 10.0 mi Calm Calm - N/A   Clear
3:51 AM 34.0 °F 28.8 °F 21.0 °F 59% 30.18 in 10.0 mi NW 5.8 mph - N/A   Clear
4:51 AM 33.1 °F - 21.0 °F 61% 30.20 in 10.0 mi Calm Calm - N/A   Clear
5:51 AM 28.0 °F - 19.9 °F 72% 30.24 in 10.0 mi Calm Calm - N/A   Clear
6:51 AM 30.0 °F 24.1 °F 19.9 °F 66% 30.25 in 10.0 mi WNW 5.8 mph - N/A   Clear
7:51 AM 30.9 °F 24.3 °F 19.9 °F 64% 30.27 in 10.0 mi NW 6.9 mph - N/A   Clear
9:51 AM 35.1 °F 28.6 °F 19.0 °F 52% 30.30 in 10.0 mi NNW 8.1 mph - N/A   Clear
11:51 AM 37.0 °F - 17.1 °F 44% 30.27 in 10.0 mi Calm Calm - N/A   Clear
12:51 PM 39.0 °F 35.7 °F 16.0 °F 39% 30.27 in 10.0 mi NNW 4.6 mph - N/A   Clear
1:51 PM 37.9 °F - 15.1 °F 39% 30.26 in 10.0 mi Calm Calm - N/A   Clear
2:51 PM 37.0 °F - 14.0 °F 39% 30.26 in 10.0 mi Calm Calm - N/A   Clear
3:51 PM 34.0 °F 29.8 °F 9.0 °F 35% 30.28 in 10.0 mi SE 4.6 mph - N/A   Clear
4:51 PM 30.9 °F - 8.1 °F 38% 30.30 in 10.0 mi Calm Calm - N/A   Clear
5:51 PM 28.9 °F - 10.0 °F 45% 30.31 in 10.0 mi Calm Calm - N/A   Clear
6:51 PM 27.0 °F - 7.0 °F 43% 30.33 in 10.0 mi Calm Calm - N/A   Clear
7:51 PM 25.0 °F 20.7 °F 8.1 °F 49% 30.34 in 10.0 mi NNE 3.5 mph - N/A   Clear
8:51 PM 24.1 °F 18.2 °F 10.0 °F 55% 30.35 in 10.0 mi NE 4.6 mph - N/A   Clear
9:51 PM 23.0 °F 18.4 °F 8.1 °F 53% 30.36 in 10.0 mi Variable 3.5 mph - N/A   Clear
10:51 PM 21.9 °F 15.7 °F 6.1 °F 51% 30.36 in 10.0 mi NNE 4.6 mph - N/A   Clear
11:51 PM 21.0 °F 14.6 °F 5.0 °F 50% 30.36 in 10.0 mi NNE 4.6 mph - N/A   Scattered Clouds